FW5442 Weather Reports


Display with metric or nautical units.
time (UTC)temp
F
wind
direction
speed
MPH
gust
MPH
rain 1hr
in
rain 24hr
in
rain mn
in
humidity
%
barometer
mb
20260903220106 97 70 3.0 9.0 0.00 0.00 0.00 44 1012.1
20260903215554 98 68 2.0 5.0 0.00 0.00 0.00 41 1011.8
20260903215054 98 77 3.0 5.0 0.00 0.00 0.00 39 1011.9
20260903214559 100 64 2.0 5.0 0.00 0.00 0.00 39 1011.8
20260903214052 99 316 1.0 5.0 0.00 0.00 0.00 40 1012.0
20260903213553 99 13 3.0 5.0 0.00 0.00 0.00 39 1011.8
20260903213101 100 0 2.0 5.0 0.00 0.00 0.00 38 1011.8
20260903212552 99 326 2.0 8.0 0.00 0.00 0.00 39 1011.9
20260903212054 99 0 3.0 8.0 0.00 0.00 0.00 40 1012.0
20260903211600 100 281 5.0 8.0 0.00 0.00 0.00 39 1012.0
20260903211054 101 342 1.0 5.0 0.00 0.00 0.00 38 1012.1
20260903210554 100 0 2.0 5.0 0.00 0.00 0.00 38 1012.1
20260903210104 100 80 3.0 7.0 0.00 0.00 0.00 37 1012.2
20260903205553 101 179 2.0 7.0 0.00 0.00 0.00 38 1012.2
20260903205052 99 184 1.0 5.0 0.00 0.00 0.00 39 1012.3
20260903204605 100 160 2.0 7.0 0.00 0.00 0.00 38 1012.3
20260903204052 99 196 3.0 7.0 0.00 0.00 0.00 38 1012.5
20260903203556 99 153 3.0 8.0 0.00 0.00 0.00 40 1012.4
20260903203102 98 159 4.0 8.0 0.00 0.00 0.00 40 1012.5
20260903202554 99 134 5.0 8.0 0.00 0.00 0.00 39 1012.6
20260903202055 99 103 3.0 10.0 0.00 0.00 0.00 40 1012.7
20260903201603 99 80 3.0 12.0 0.00 0.00 0.00 40 1012.8
20260903201054 99 258 6.0 12.0 0.00 0.00 0.00 39 1012.8
20260903200553 99 276 9.0 12.0 0.00 0.00 0.00 40 1012.8
20260903200100 99 269 6.0 13.0 0.00 0.00 0.00 39 1012.9
20260903195555 99 226 6.0 13.0 0.00 0.00 0.00 39 1012.9
20260903195052 100 233 3.0 10.0 0.00 0.00 0.00 39 1013.1
20260903194604 99 233 2.0 8.0 0.00 0.00 0.00 40 1013.3
20260903194141 98 157 3.0 8.0 0.00 0.00 0.00 40 1013.4
20260903193555 99 111 1.0 8.0 0.00 0.00 0.00 40 1013.3
20260903193118 99 150 5.0 9.0 0.00 0.00 0.00 40 1013.6
20260903192555 99 79 1.0 9.0 0.00 0.00 0.00 41 1013.6
20260903192052 99 156 5.0 9.0 0.00 0.00 0.00 40 1013.7
20260903191606 98 0 2.0 5.0 0.00 0.00 0.00 41 1013.6
20260903191052 98 143 3.0 5.0 0.00 0.00 0.00 41 1013.8
20260903190554 99 64 1.0 5.0 0.00 0.00 0.00 40 1013.8
20260903190104 99 81 2.0 5.0 0.00 0.00 0.00 40 1013.9
20260903185552 99 22 2.0 6.0 0.00 0.00 0.00 39 1014.0
20260903185052 99 126 3.0 7.0 0.00 0.00 0.00 39 1014.1
20260903184600 99 162 2.0 7.0 0.00 0.00 0.00 42 1014.1
20260903184052 98 154 4.0 6.0 0.00 0.00 0.00 43 1014.1
20260903183558 98 67 2.0 6.0 0.00 0.00 0.00 43 1014.2
20260903183104 98 101 2.0 8.0 0.00 0.00 0.00 44 1014.2
20260903182558 97 122 4.0 8.0 0.00 0.00 0.00 44 1014.3
20260903182053 97 131 2.0 8.0 0.00 0.00 0.00 45 1014.3
20260903181607 95 243 4.0 8.0 0.00 0.00 0.00 46 1014.4
20260903181052 96 207 2.0 4.0 0.00 0.00 0.00 47 1014.7
20260903180554 95 0 0.0 4.0 0.00 0.00 0.00 47 1014.6
20260903180113 95 119 1.0 5.0 0.00 0.00 0.00 47 1014.7
20260903175553 95 162 3.0 5.0 0.00 0.00 0.00 47 1014.7
20260903175055 95 123 2.0 8.0 0.00 0.00 0.00 48 1014.9
20260903174600 95 220 6.0 8.0 0.00 0.00 0.00 46 1015.1
20260903174053 96 207 3.0 8.0 0.00 0.00 0.00 47 1015.0
20260903173552 96 237 3.0 8.0 0.00 0.00 0.00 46 1015.1
20260903173106 97 149 3.0 9.0 0.00 0.00 0.00 45 1015.1
20260903172557 97 159 4.0 9.0 0.00 0.00 0.00 46 1015.2
20260903172053 96 120 4.0 9.0 0.00 0.00 0.00 47 1015.2
20260903171556 96 139 4.0 10.0 0.00 0.00 0.00 46 1015.3
20260903171054 95 133 5.0 10.0 0.00 0.00 0.00 48 1015.3
20260903170552 96 99 3.0 7.0 0.00 0.00 0.00 48 1015.4
20260903170219 96 167 3.0 6.0 0.00 0.00 0.00 48 1015.5
20260903165555 96 134 1.0 4.0 0.00 0.00 0.00 48 1015.5
20260903165055 95 0 0.0 6.0 0.00 0.00 0.00 50 1015.6
20260903164600 94 240 1.0 7.0 0.00 0.00 0.00 50 1015.6
20260903164053 93 328 2.0 7.0 0.00 0.00 0.00 52 1015.7
20260903163558 93 166 3.0 9.0 0.00 0.00 0.00 52 1015.7
20260903163103 92 249 2.0 9.0 0.00 0.00 0.00 52 1015.8
20260903162558 92 41 6.0 9.0 0.00 0.00 0.00 52 1015.7
20260903162054 92 266 4.0 9.0 0.00 0.00 0.00 53 1015.8
20260903161622 93 172 2.0 8.0 0.00 0.00 0.00 53 1015.8
20260903161053 92 348 3.0 7.0 0.00 0.00 0.00 55 1015.8
20260903160555 92 283 2.0 8.0 0.00 0.00 0.00 53 1015.8
20260903160101 91 230 3.0 9.0 0.00 0.00 0.00 54 1016.0
20260903155554 91 293 3.0 9.0 0.00 0.00 0.00 55 1016.1
20260903155053 91 298 1.0 9.0 0.00 0.00 0.00 54 1015.9
20260903154601 91 330 0.0 9.0 0.00 0.00 0.00 55 1015.9
20260903154053 90 288 6.0 9.0 0.00 0.00 0.00 55 1016.0
20260903153553 90 305 3.0 8.0 0.00 0.00 0.00 56 1015.9
20260903153057 90 302 4.0 11.0 0.00 0.00 0.00 57 1015.9
20260903152555 90 321 5.0 11.0 0.00 0.00 0.00 56 1015.7
20260903152054 90 5 3.0 11.0 0.00 0.00 0.00 57 1015.9
20260903151603 89 300 7.0 11.0 0.00 0.00 0.00 58 1015.9
20260903151058 89 328 4.0 11.0 0.00 0.00 0.00 58 1015.9
20260903150554 89 311 5.0 9.0 0.00 0.00 0.00 58 1015.8
20260903145555 89 288 4.0 11.0 0.00 0.00 0.00 58 1015.9
20260903145053 88 309 6.0 8.0 0.00 0.00 0.00 59 1015.9
20260903144602 88 278 5.0 11.0 0.00 0.00 0.00 59 1015.9
20260903144053 88 285 6.0 11.0 0.00 0.00 0.00 61 1015.7
20260903143554 88 283 6.0 11.0 0.00 0.00 0.00 60 1015.9
20260903143101 88 276 6.0 11.0 0.00 0.00 0.00 59 1016.0
20260903142557 87 277 7.0 11.0 0.00 0.00 0.00 61 1015.9
20260903142053 87 300 7.0 12.0 0.00 0.00 0.00 61 1015.9
20260903141602 87 304 7.0 13.0 0.00 0.00 0.00 62 1016.0
20260903141058 87 303 5.0 13.0 0.00 0.00 0.00 63 1016.2
20260903140555 87 268 7.0 13.0 0.00 0.00 0.00 63 1016.0
20260903140104 87 283 4.0 11.0 0.00 0.00 0.00 63 1016.0
20260903135555 86 284 5.0 11.0 0.00 0.01 0.00 65 1016.2
20260903135055 85 307 6.0 9.0 0.00 0.01 0.00 65 1016.1
20260903134603 85 305 5.0 8.0 0.00 0.01 0.00 67 1016.2
20260903134053 84 294 3.0 8.0 0.00 0.01 0.00 69 1016.2
20260903133553 84 311 4.0 7.0 0.00 0.01 0.00 69 1016.2
20260903133101 84 280 4.0 7.0 0.00 0.01 0.00 71 1016.3
20260903132554 84 294 5.0 7.0 0.00 0.01 0.00 71 1016.4
20260903132054 83 303 3.0 5.0 0.00 0.01 0.00 72 1016.3
20260903131609 83 331 3.0 5.0 0.00 0.01 0.00 73 1016.2
20260903131053 82 309 1.0 2.0 0.00 0.01 0.00 76 1016.3
20260903130554 81 6 0.0 4.0 0.00 0.01 0.00 78 1016.1
20260903130107 80 0 1.0 4.0 0.00 0.01 0.00 80 1016.2
20260903125555 80 274 3.0 4.0 0.00 0.01 0.00 80 1016.2
20260903125054 79 259 3.0 4.0 0.00 0.01 0.00 81 1016.1
20260903124626 79 0 0.0 1.0 0.00 0.01 0.00 81 1016.1
20260903124054 80 257 0.0 0.0 0.00 0.01 0.00 81 1016.1
20260903123554 79 0 0.0 0.0 0.00 0.01 0.00 81 1015.9
20260903123106 78 0 0.0 0.0 0.00 0.01 0.00 82 1015.9
20260903122553 78 0 0.0 0.0 0.00 0.01 0.00 83 1015.9
20260903122055 78 0 0.0 0.0 0.00 0.01 0.00 84 1015.8
20260903121606 77 0 0.0 0.0 0.00 0.01 0.00 85 1015.8
20260903121053 76 0 0.0 0.0 0.00 0.01 0.00 86 1015.7
20260903120554 76 0 0.0 1.0 0.00 0.01 0.00 87 1015.7
20260903120106 75 0 0.0 1.0 0.00 0.01 0.00 87 1015.7
20260903115556 75 165 0.0 1.0 0.00 0.01 0.00 89 1015.5
20260903115051 75 0 0.0 0.0 0.00 0.01 0.00 89 1015.5
20260903114614 74 0 0.0 0.0 0.00 0.01 0.00 90 1015.4
20260903114054 74 0 0.0 0.0 0.00 0.01 0.00 90 1015.5
20260903113554 74 0 0.0 0.0 0.00 0.01 0.00 90 1015.5
20260903113109 74 0 0.0 0.0 0.00 0.01 0.00 90 1015.4
20260903112554 74 0 0.0 0.0 0.00 0.01 0.00 90 1015.4
20260903112054 74 0 0.0 0.0 0.00 0.01 0.00 90 1015.3
20260903111603 74 0 0.0 0.0 0.00 0.01 0.00 88 1015.3
20260903111054 74 0 0.0 0.0 0.00 0.01 0.00 88 1015.2
20260903110554 74 0 0.0 0.0 0.00 0.01 0.00 88 1015.1
20260903110108 74 0 0.0 0.0 0.00 0.01 0.00 88 1015.0
20260903105555 74 0 0.0 0.0 0.00 0.01 0.00 88 1014.9
20260903105055 75 0 0.0 0.0 0.00 0.01 0.00 87 1014.9
20260903104607 75 0 0.0 0.0 0.00 0.01 0.00 87 1015.0
20260903104052 75 0 0.0 0.0 0.00 0.01 0.00 86 1014.9
20260903103554 75 0 0.0 0.0 0.00 0.01 0.00 86 1014.9
20260903103101 76 0 0.0 0.0 0.00 0.01 0.00 85 1014.9
20260903102552 76 0 0.0 0.0 0.00 0.01 0.00 85 1014.9
20260903102054 76 0 0.0 0.0 0.00 0.01 0.00 87 1015.0
20260903101602 75 0 0.0 0.0 0.00 0.01 0.00 87 1014.9
20260903101055 75 0 0.0 0.0 0.00 0.01 0.00 86 1014.8
20260903100557 75 0 0.0 0.0 0.00 0.01 0.00 86 1014.6
20260903100105 75 0 0.0 0.0 0.00 0.01 0.00 87 1014.7
20260903095557 75 0 0.0 0.0 0.00 0.01 0.00 86 1014.9
20260903095057 75 0 0.0 0.0 0.00 0.01 0.00 86 1014.8
20260903094605 75 0 0.0 0.0 0.00 0.01 0.00 85 1014.8
20260903094055 75 0 0.0 0.0 0.00 0.01 0.00 85 1014.7
20260903093556 76 0 0.0 0.0 0.00 0.01 0.00 86 1014.8
20260903093110 76 0 0.0 0.0 0.00 0.01 0.00 84 1014.8
20260903092559 76 0 0.0 0.0 0.00 0.01 0.00 83 1014.7
20260903092056 77 0 0.0 0.0 0.00 0.01 0.00 83 1014.6
20260903091605 77 0 0.0 0.0 0.00 0.01 0.00 84 1014.7
20260903091057 77 0 0.0 0.0 0.00 0.01 0.00 84 1014.7
20260903090557 77 0 0.0 0.0 0.00 0.01 0.00 83 1014.7
20260903090111 77 0 0.0 1.0 0.00 0.01 0.00 83 1014.7
20260903085557 77 0 0.0 1.0 0.00 0.01 0.00 83 1014.6
20260903085056 77 0 0.0 1.0 0.00 0.01 0.00 83 1014.5
20260903084618 77 0 0.0 0.0 0.00 0.01 0.00 84 1014.5
20260903084056 77 0 0.0 3.0 0.00 0.01 0.00 84 1014.5
20260903083558 76 0 0.0 3.0 0.00 0.01 0.00 85 1014.6
20260903083103 76 257 2.0 4.0 0.00 0.01 0.00 84 1014.7
20260903082556 76 257 2.0 4.0 0.00 0.01 0.00 85 1014.7
20260903082059 76 254 4.0 4.0 0.00 0.01 0.00 84 1014.7
20260903081559 77 249 4.0 4.0 0.00 0.01 0.00 84 1014.6
20260903081058 77 240 3.0 3.0 0.00 0.01 0.00 83 1014.6
20260903080557 78 243 0.0 3.0 0.00 0.01 0.00 81 1014.6
20260903080105 78 0 0.0 0.0 0.00 0.01 0.00 80 1014.6
20260903075556 78 0 0.0 0.0 0.00 0.01 0.00 80 1014.6
20260903075056 79 0 0.0 0.0 0.00 0.01 0.00 79 1014.5
20260903074604 79 0 0.0 0.0 0.00 0.01 0.00 78 1014.4
20260903074057 79 0 0.0 0.0 0.00 0.01 0.00 78 1014.4
20260903073558 79 0 0.0 0.0 0.00 0.01 0.00 78 1014.3
20260903073106 79 0 0.0 1.0 0.00 0.01 0.00 78 1014.4
20260903072552 79 0 0.0 2.0 0.00 0.01 0.00 78 1014.3
20260903072057 79 0 0.0 2.0 0.00 0.01 0.00 77 1014.4
20260903071603 79 88 1.0 3.0 0.00 0.01 0.00 78 1014.4
20260903071056 79 74 1.0 3.0 0.00 0.01 0.00 78 1014.5
20260903070556 79 79 2.0 3.0 0.00 0.01 0.00 79 1014.6
20260903065558 79 90 2.0 3.0 0.00 0.01 0.00 80 1014.6
20260903065056 79 84 2.0 3.0 0.00 0.01 0.00 80 1014.5
20260903064600 79 0 0.0 2.0 0.00 0.01 0.00 80 1014.7
20260903064056 79 0 0.0 3.0 0.00 0.01 0.00 80 1014.4
20260903063557 79 101 2.0 3.0 0.00 0.01 0.00 80 1014.5
20260903063106 79 88 2.0 4.0 0.00 0.01 0.00 80 1014.6
20260903062558 79 96 3.0 4.0 0.00 0.01 0.00 80 1014.7
20260903062053 79 86 3.0 4.0 0.00 0.01 0.00 80 1014.7
20260903061605 79 90 2.0 3.0 0.00 0.01 0.00 80 1014.7
20260903061057 79 92 3.0 3.0 0.00 0.01 0.00 80 1014.8
20260903060556 78 94 2.0 3.0 0.00 0.01 0.00 81 1014.7
20260903060106 78 82 2.0 3.0 0.00 0.01 0.00 81 1014.6
20260903055557 78 97 1.0 2.0 0.00 0.01 0.00 81 1014.8
20260903055057 78 106 1.0 2.0 0.00 0.01 0.00 81 1014.8
20260903054558 78 112 0.0 2.0 0.00 0.01 0.00 81 1014.9
20260903054053 78 126 1.0 2.0 0.00 0.01 0.00 81 1014.7
20260903053553 78 135 0.0 0.0 0.00 0.01 0.00 81 1014.6
20260903053101 78 0 0.0 1.0 0.00 0.01 0.00 81 1014.7
20260903052553 78 0 0.0 1.0 0.00 0.01 0.00 81 1014.5
20260903052054 78 146 1.0 1.0 0.00 0.01 0.00 81 1014.7
20260903051609 78 118 1.0 2.0 0.00 0.01 0.00 81 1014.6
20260903051052 78 122 1.0 3.0 0.00 0.01 0.00 81 1014.5
20260903050556 79 110 2.0 3.0 0.00 0.01 0.00 80 1014.5
20260903045555 80 89 2.0 4.0 0.00 0.01 0.01 79 1014.5
20260903045059 80 88 3.0 4.0 0.00 0.01 0.01 78 1014.3
20260903044601 80 77 3.0 4.0 0.00 0.01 0.01 77 1014.4
20260903044058 80 0 0.0 3.0 0.00 0.01 0.01 77 1014.5
20260903043553 80 88 1.0 3.0 0.00 0.01 0.01 77 1014.5
20260903043104 80 0 0.0 2.0 0.00 0.01 0.01 77 1014.4
20260903042557 80 0 1.0 2.0 0.00 0.01 0.01 77 1014.4
20260903042056 80 83 0.0 0.0 0.00 0.01 0.01 77 1014.5
20260903041601 81 0 0.0 0.0 0.00 0.01 0.01 76 1014.4
20260903041056 80 0 0.0 0.0 0.00 0.01 0.01 76 1014.4
20260903040557 80 0 0.0 0.0 0.00 0.01 0.01 76 1014.5
20260903040058 80 0 0.0 0.0 0.00 0.01 0.01 76 1014.5
20260903035555 80 0 0.0 0.0 0.00 0.01 0.01 76 1014.5
20260903035056 81 0 0.0 0.0 0.00 0.01 0.01 76 1014.5
20260903034602 80 0 0.0 0.0 0.00 0.01 0.01 76 1014.4
20260903034057 80 0 0.0 0.0 0.00 0.01 0.01 76 1014.4
20260903033618 80 0 0.0 0.0 0.00 0.01 0.01 76 1014.5
20260903033102 81 0 0.0 0.0 0.00 0.01 0.01 75 1014.6
20260903032556 81 0 0.0 0.0 0.00 0.01 0.01 74 1014.5
20260903032057 81 0 0.0 0.0 0.00 0.01 0.01 74 1014.5
20260903031601 81 0 0.0 0.0 0.00 0.01 0.01 74 1014.3
20260903031056 81 0 0.0 0.0 0.00 0.01 0.01 74 1014.4
20260903030556 81 0 0.0 0.0 0.00 0.01 0.01 74 1014.5
20260903030059 82 0 0.0 0.0 0.00 0.01 0.01 74 1014.5
20260903025553 82 0 0.0 0.0 0.00 0.01 0.01 74 1014.4
20260903025053 81 0 0.0 0.0 0.00 0.01 0.01 74 1014.6
20260903024604 81 0 0.0 0.0 0.00 0.01 0.01 75 1014.4
20260903024052 81 0 0.0 0.0 0.00 0.01 0.01 75 1014.4
20260903023559 81 0 0.0 0.0 0.00 0.01 0.01 74 1014.5
20260903023106 82 0 0.0 0.0 0.00 0.01 0.01 74 1014.5
20260903022556 82 0 0.0 0.0 0.00 0.01 0.01 74 1014.5
20260903022059 82 0 0.0 0.0 0.00 0.01 0.01 74 1014.4
20260903021602 82 0 0.0 0.0 0.00 0.01 0.01 73 1014.3
20260903021055 82 0 0.0 0.0 0.00 0.01 0.01 72 1014.3
20260903020556 82 0 0.0 0.0 0.00 0.01 0.01 72 1014.4
20260903020101 82 0 0.0 0.0 0.00 0.01 0.01 72 1014.3
20260903015553 83 0 0.0 1.0 0.00 0.01 0.01 72 1014.3
20260903015056 83 0 0.0 2.0 0.00 0.01 0.01 72 1014.1
20260903014611 83 0 0.0 2.0 0.00 0.01 0.01 72 1014.0
20260903014056 83 248 2.0 2.0 0.00 0.01 0.01 71 1014.1
20260903013556 83 245 2.0 2.0 0.00 0.01 0.01 71 1014.0
20260903013100 83 232 2.0 2.0 0.00 0.01 0.01 71 1014.0
20260903012557 83 232 1.0 3.0 0.00 0.01 0.01 70 1013.9
20260903012056 84 217 1.0 3.0 0.00 0.01 0.01 70 1013.9
20260903011600 84 225 2.0 3.0 0.00 0.01 0.01 69 1013.8
20260903011053 84 243 1.0 2.0 0.00 0.01 0.01 68 1013.8
20260903010553 84 260 1.0 5.0 0.00 0.01 0.01 68 1013.8
20260903010107 84 269 1.0 6.0 0.00 0.01 0.01 68 1013.9
20260903005555 85 229 5.0 7.0 0.00 0.01 0.01 67 1013.9
20260903005052 85 198 4.0 11.0 0.00 0.01 0.01 66 1013.9
20260903004602 86 210 5.0 11.0 0.00 0.01 0.01 64 1013.9
20260903004056 86 217 8.0 11.0 0.00 0.01 0.01 64 1014.0
20260903003557 87 236 8.0 10.0 0.00 0.01 0.01 62 1014.0
20260903003102 88 242 5.0 9.0 0.00 0.01 0.01 59 1013.9
20260903002556 88 191 7.0 9.0 0.00 0.01 0.01 58 1014.0
20260903002056 88 210 6.0 7.0 0.00 0.01 0.01 56 1013.9
20260903001608 89 154 4.0 5.0 0.00 0.01 0.01 56 1013.9
20260903001055 88 191 2.0 6.0 0.00 0.01 0.01 56 1013.9
20260903000556 88 152 3.0 6.0 0.00 0.01 0.01 57 1013.9
20260903000105 89 139 3.0 6.0 0.00 0.01 0.01 55 1013.9
20260902235553 89 169 4.0 8.0 0.00 0.01 0.01 55 1013.9
20260902235053 89 165 5.0 8.0 0.00 0.01 0.01 56 1013.8
20260902234608 89 212 7.0 9.0 0.00 0.01 0.01 57 1013.8
20260902234055 88 233 7.0 12.0 0.00 0.01 0.01 57 1013.7
20260902233559 88 224 7.0 15.0 0.00 0.01 0.01 57 1013.9
20260902233104 89 237 11.0 15.0 0.00 0.01 0.01 57 1013.9
20260902232555 89 236 9.0 13.0 0.00 0.01 0.01 57 1013.7
20260902232056 89 235 10.0 19.0 0.00 0.01 0.01 57 1013.6
20260902231603 89 214 12.0 23.0 0.00 0.01 0.01 57 1013.6
20260902231058 90 207 15.0 23.0 0.00 0.01 0.01 56 1013.9
20260902230555 91 209 15.0 21.0 0.00 0.01 0.01 54 1013.8
20260902230115 92 216 16.0 21.0 0.00 0.01 0.01 52 1013.8
20260902225556 93 189 9.0 12.0 0.00 0.01 0.01 51 1013.8
20260902225058 93 233 6.0 11.0 0.00 0.01 0.01 49 1013.6
20260902224601 93 239 6.0 11.0 0.00 0.01 0.01 50 1013.6
20260902224052 93 247 5.0 8.0 0.00 0.01 0.01 50 1013.6
20260902223552 93 269 4.0 9.0 0.00 0.01 0.01 51 1013.5
20260902223118 93 271 5.0 14.0 0.00 0.01 0.01 51 1013.6
20260902222557 93 299 5.0 14.0 0.00 0.01 0.01 50 1013.5
20260902222055 94 264 4.0 12.0 0.00 0.01 0.01 49 1013.5
20260902221559 95 295 5.0 9.0 0.00 0.01 0.01 47 1013.5
20260902221059 96 331 4.0 9.0 0.00 0.01 0.01 46 1013.5
20260902220557 96 299 4.0 7.0 0.00 0.01 0.01 45 1013.6